Flag for Germany Weather past 2 weeks in Strausberg, Brandenburg, Germany

Now
82 °F

Passing clouds.


Feels Like: 84 °F
Forecast: 65 / 77 °F
Wind: 5 mph from East

Location: Berlin-Schoenefeld

Current Time: Jul 29, 2014 at 1:13:08 PM

Latest Report: Jul 29, 2014 at 12:50 PM


Visibility: N/A

Pressure: 29.74 "Hg

Humidity: 55%

Dew point: 64 °F

Location of StrausbergLocation

Historic Weather in Strausberg — Graph

°F

Strausberg temperature yesterday

Maximum temperature yesterday: 81 °F (at 4:50 PM)
Minimum temperature yesterday: 66 °F (at 1:20 AM)
Average temperature yesterday: 74 °F

Past Weeks' High & Low Weather Summary

 TemperatureHumidityPressure
High93 °F (Jul 20, 3:50 PM)100% (Jul 26, 1:50 AM)30.18 "Hg (Jul 26, 1:50 AM)
Low61 °F (Jul 15, 1:50 AM)24% (Jul 20, 3:50 PM)29.77 "Hg (Jul 20, 6:20 PM)
Average73 °F66%29.98 "Hg
* Reported Jul 14 11:20 AM — Jul 29 11:50 AM, Strausberg, Weather by CustomWeather, © 2014

Note: Actual official high and low records may vary slightly from our data, if they occured in-between our weather recording intervals... More about our weather records

Advertising

Strausberg weather history for previous 24 hours

 ConditionsComfort  
Time TempWeatherWind HumidityBarometerVisibility
11:50 AM
Jul 29
79 °FSunny.6 mph65%29.77 "Hg10 mi
11:20 AM77 °FSunny.7 mph69%29.77 "Hg10 mi
10:50 AM77 °FPassing clouds.7 mph69%29.77 "HgN/A
10:20 AM75 °FSunny.7 mph74%29.77 "Hg10 mi
9:50 AM73 °FScattered clouds.9 mph78%29.77 "HgN/A
9:20 AM72 °FPartly sunny.6 mph83%29.77 "HgN/A
8:50 AM72 °FBroken clouds.7 mph83%29.77 "HgN/A
8:20 AM70 °FBroken clouds.8 mph88%29.80 "Hg6 mi
7:50 AM68 °FPartly sunny.6 mph94%29.77 "Hg6 mi
7:20 AM68 °FThundershowers. Broken clouds.8 mph94%29.77 "Hg6 mi
6:50 AM68 °FBroken clouds.5 mph88%29.80 "Hg5 mi
6:20 AM68 °FSprinkles. Broken clouds.5 mph88%29.80 "Hg4 mi
5:50 AM68 °FThundershowers. Partly cloudy.5 mph88%29.80 "Hg5 mi
5:20 AM68 °FThundershowers. Partly cloudy.3 mph88%29.80 "HgN/A
4:50 AM68 °FClear.5 mph88%29.80 "Hg10 mi
4:20 AM70 °FClear.5 mph83%29.80 "Hg10 mi
3:50 AM70 °FLight rain. Clear.7 mph83%29.80 "HgN/A
3:20 AM70 °FLight rain. Clear.7 mph83%29.80 "HgN/A
2:50 AM70 °FClear.6 mph83%29.80 "Hg10 mi
2:20 AM70 °FClear.5 mph83%29.80 "Hg10 mi
1:50 AM72 °FClear.7 mph78%29.80 "Hg10 mi
1:20 AM72 °FClear.7 mph78%29.80 "Hg10 mi
12:50 AM72 °FClear.6 mph78%29.80 "Hg10 mi
12:20 AM73 °FClear.5 mph78%29.83 "Hg10 mi
11:50 PM
Jul 28
73 °FClear.5 mph78%29.83 "Hg10 mi
11:20 PM73 °FClear.8 mph78%29.83 "Hg10 mi
10:50 PM75 °FClear.8 mph74%29.83 "Hg10 mi
10:20 PM75 °FClear.7 mph74%29.83 "Hg10 mi
9:50 PM77 °FSunny.3 mph65%29.83 "Hg10 mi
9:20 PM77 °FSunny.3 mph65%29.83 "Hg10 mi
8:50 PM79 °FSunny.6 mph61%29.83 "Hg10 mi
8:20 PM79 °FSunny.7 mph61%29.83 "Hg10 mi
7:50 PM81 °FPartly sunny.7 mph62%29.83 "HgN/A
7:20 PM81 °FSunny.6 mph62%29.83 "Hg10 mi
6:50 PM79 °FSunny.7 mph61%29.83 "Hg10 mi
6:20 PM81 °FSunny.8 mph54%29.83 "Hg10 mi
5:50 PM81 °FSunny.6 mph62%29.83 "Hg10 mi
5:20 PM79 °FSunny.7 mph65%29.83 "Hg10 mi
4:50 PM81 °FSunny.7 mph58%29.86 "Hg10 mi
4:20 PM79 °FPassing clouds.7 mph65%29.86 "HgN/A
3:50 PM79 °FSunny.7 mph65%29.86 "Hg10 mi
3:20 PM75 °FLight rain. Broken clouds.6 mph78%29.86 "HgN/A
2:50 PM75 °FLight rain. Broken clouds.3 mph78%29.89 "HgN/A
2:20 PM75 °FLight rain. Broken clouds.3 mph78%29.89 "HgN/A
1:50 PM75 °FLight rain. Partly sunny.7 mph78%29.92 "HgN/A
1:20 PM77 °FPartly sunny.7 mph65%29.92 "HgN/A
Weather by CustomWeather, © 2014

See weather overviewHow to use our weather pages